{"data":{"norad_id":68908,"epoch":"2026-05-25T04:00:03.998880Z","epoch_age_seconds":54436,"freshness":"FRESH","line1":"1 68908U 26097P   26145.16671295 -.03467034  00000+0 -11212+0 0  9994","line2":"2 68908  97.2853 340.9634 0002170 101.3909 301.6613 15.35999962  5226","mean_motion":15.35999962,"eccentricity":0.000217,"inclination_deg":97.2853,"raan_deg":340.9634,"arg_perigee_deg":101.3909,"mean_anomaly_deg":301.6613,"bstar":-0.11212,"rev_number":522,"period_min":93.750002319336,"perigee_km":456.4685130179,"apogee_km":459.43537561973,"semimajor_km":6836.0889443188,"source":"CELESTRAK","updated_at":"2026-05-25T13:38:22.069041Z"}}